FIN318 EFVA-EFHK

Flight info

Callsign FIN318
Flight time 0h 43m
Altitude 23000
Route GUBTU DCT ENETI Y362 LAKUT
Aircraft AT75/M-SDFGIRY/S

Departure

Time 2026-04-23 20:20
Airport Vaasa Airport (EFVA)

Arrival

Time 2026-04-23 21:03
Airport Helsinki Vantaa Airport (EFHK)
Time Latitude Longitude Altitude Speed Heading
2026-04-23 19:53 63.04332 21.76186 21 ft 0 kts 281°
2026-04-23 20:13 63.04337 21.76177 23 ft 1 kts 325°
2026-04-23 20:13 63.04352 21.76188 21 ft 5 kts 18°
2026-04-23 20:14 63.04402 21.76223 21 ft 10 kts 18°
2026-04-23 20:14 63.04476 21.76231 21 ft 12 kts 344°
2026-04-23 20:14 63.04552 21.76182 21 ft 12 kts 343°
2026-04-23 20:14 63.04637 21.76126 21 ft 13 kts 343°
2026-04-23 20:15 63.04729 21.76063 20 ft 14 kts 342°
2026-04-23 20:15 63.04824 21.76000 23 ft 14 kts 349°
2026-04-23 20:15 63.04874 21.76114 21 ft 13 kts 73°
2026-04-23 20:15 63.04919 21.76285 22 ft 13 kts 17°
2026-04-23 20:16 63.05008 21.76246 25 ft 14 kts 343°
2026-04-23 20:16 63.05100 21.76183 23 ft 15 kts 343°
2026-04-23 20:16 63.05218 21.76109 22 ft 18 kts 343°
2026-04-23 20:16 63.05337 21.76027 24 ft 18 kts 343°
2026-04-23 20:17 63.05457 21.75947 22 ft 18 kts 343°
2026-04-23 20:17 63.05578 21.75867 23 ft 18 kts 343°
2026-04-23 20:17 63.05698 21.75786 23 ft 18 kts 342°
2026-04-23 20:17 63.05817 21.75705 23 ft 18 kts 342°
2026-04-23 20:18 63.05930 21.75601 26 ft 18 kts 333°
2026-04-23 20:18 63.05973 21.75625 28 ft 6 kts 158°
2026-04-23 20:18 63.05920 21.75639 26 ft 0 kts 161°
2026-04-23 20:19 63.05724 21.75773 23 ft 69 kts 162°
2026-04-23 20:19 63.05038 21.76244 54 ft 130 kts 162°
2026-04-23 20:20 63.04149 21.76894 540 ft 140 kts 162°
2026-04-23 20:20 63.03183 21.77605 1089 ft 155 kts 162°
2026-04-23 20:20 63.02097 21.78301 1614 ft 170 kts 162°
2026-04-23 20:20 63.00926 21.79039 2217 ft 178 kts 161°
2026-04-23 20:21 62.99723 21.79803 2660 ft 184 kts 161°
2026-04-23 20:21 62.98431 21.80698 2932 ft 202 kts 160°
2026-04-23 20:21 62.97102 21.81757 3441 ft 203 kts 156°
2026-04-23 20:21 62.95798 21.82987 3967 ft 204 kts 155°
2026-04-23 20:22 62.94493 21.84241 4481 ft 206 kts 155°
2026-04-23 20:22 62.93172 21.85472 4997 ft 206 kts 157°
2026-04-23 20:22 62.91839 21.86662 5512 ft 208 kts 158°
2026-04-23 20:22 62.90496 21.87839 6030 ft 208 kts 158°
2026-04-23 20:23 62.89145 21.89025 6504 ft 210 kts 158°
2026-04-23 20:23 62.87778 21.90224 6957 ft 213 kts 158°
2026-04-23 20:23 62.86412 21.91434 7384 ft 216 kts 158°
2026-04-23 20:23 62.85005 21.92677 7813 ft 220 kts 158°
2026-04-23 20:24 62.83575 21.93937 8263 ft 223 kts 157°
2026-04-23 20:24 62.82126 21.95209 8677 ft 226 kts 157°
2026-04-23 20:24 62.80651 21.96503 9096 ft 230 kts 157°
2026-04-23 20:24 62.79157 21.97818 9502 ft 233 kts 157°
2026-04-23 20:25 62.77645 21.99150 9889 ft 236 kts 157°
2026-04-23 20:25 62.76112 22.00483 10252 ft 238 kts 157°
2026-04-23 20:25 62.74569 22.01834 10625 ft 240 kts 157°
2026-04-23 20:25 62.73009 22.03194 10978 ft 243 kts 157°
2026-04-23 20:26 62.71432 22.04569 11336 ft 245 kts 157°
2026-04-23 20:26 62.69847 22.05948 11705 ft 247 kts 158°
2026-04-23 20:26 62.68245 22.07340 12071 ft 249 kts 158°
2026-04-23 20:26 62.66630 22.08744 12419 ft 251 kts 157°
2026-04-23 20:27 62.65000 22.10158 12759 ft 254 kts 157°
2026-04-23 20:27 62.63354 22.11584 13100 ft 256 kts 158°
2026-04-23 20:27 62.61697 22.13019 13449 ft 258 kts 158°
2026-04-23 20:27 62.60024 22.14464 13760 ft 260 kts 158°
2026-04-23 20:28 62.58335 22.15923 14041 ft 262 kts 158°
2026-04-23 20:28 62.56632 22.17393 14312 ft 265 kts 157°
2026-04-23 20:28 62.54913 22.18874 14575 ft 267 kts 158°
2026-04-23 20:28 62.53175 22.20369 14839 ft 269 kts 157°
2026-04-23 20:29 62.51426 22.21876 15106 ft 272 kts 157°
2026-04-23 20:29 62.49661 22.23389 15373 ft 274 kts 157°
2026-04-23 20:29 62.47884 22.24918 15630 ft 276 kts 157°
2026-04-23 20:29 62.46091 22.26449 15889 ft 278 kts 157°
2026-04-23 20:30 62.44287 22.28002 16134 ft 280 kts 157°
2026-04-23 20:30 62.40637 22.31122 16608 ft 284 kts 156°
2026-04-23 20:30 62.38794 22.32702 16829 ft 286 kts 156°
2026-04-23 20:31 62.36939 22.34285 17075 ft 288 kts 156°
2026-04-23 20:31 62.35071 22.35873 17314 ft 290 kts 156°
2026-04-23 20:31 62.33189 22.37470 17547 ft 292 kts 156°
2026-04-23 20:31 62.31297 22.39072 17764 ft 293 kts 156°
2026-04-23 20:32 62.29390 22.40686 17992 ft 295 kts 156°
2026-04-23 20:32 62.27498 22.42285 18180 ft 297 kts 156°
2026-04-23 20:32 62.25570 22.43912 18357 ft 298 kts 156°
2026-04-23 20:32 62.23635 22.45542 18525 ft 299 kts 156°
2026-04-23 20:33 62.21693 22.47177 18692 ft 301 kts 156°
2026-04-23 20:33 62.19740 22.48816 18850 ft 302 kts 156°
2026-04-23 20:33 62.17780 22.50458 19010 ft 303 kts 156°
2026-04-23 20:33 62.15813 22.52109 19194 ft 304 kts 156°
2026-04-23 20:34 62.13834 22.53765 19377 ft 306 kts 156°
2026-04-23 20:34 62.11849 22.55424 19551 ft 307 kts 156°
2026-04-23 20:34 62.09852 22.57090 19722 ft 308 kts 156°
2026-04-23 20:34 62.07849 22.58758 19890 ft 310 kts 156°
2026-04-23 20:35 62.05839 22.60430 20060 ft 311 kts 156°
2026-04-23 20:35 62.04502 22.61539 20160 ft 312 kts 156°
2026-04-23 20:35 62.02478 22.63220 20312 ft 313 kts 156°
2026-04-23 20:35 62.00448 22.64902 20458 ft 314 kts 156°
2026-04-23 20:36 61.98409 22.66589 20595 ft 315 kts 156°
2026-04-23 20:36 61.96364 22.68280 20745 ft 316 kts 156°
2026-04-23 20:36 61.94311 22.69974 20872 ft 317 kts 156°
2026-04-23 20:36 61.92255 22.71668 21003 ft 318 kts 156°
2026-04-23 20:37 61.90189 22.73367 21127 ft 319 kts 156°
2026-04-23 20:37 61.88119 22.75070 21251 ft 319 kts 156°
2026-04-23 20:37 61.86045 22.76771 21370 ft 320 kts 156°
2026-04-23 20:37 61.83960 22.78477 21500 ft 321 kts 156°
2026-04-23 20:38 61.81871 22.80185 21656 ft 322 kts 156°
2026-04-23 20:38 61.79775 22.81897 21802 ft 323 kts 156°
2026-04-23 20:38 61.77671 22.83613 21940 ft 325 kts 156°
2026-04-23 20:38 61.75564 22.85332 22082 ft 325 kts 156°
2026-04-23 20:39 61.73447 22.87052 22218 ft 326 kts 156°
2026-04-23 20:39 61.71326 22.88776 22343 ft 327 kts 156°
2026-04-23 20:39 61.69196 22.90504 22466 ft 328 kts 156°
2026-04-23 20:39 61.67090 22.92210 22581 ft 329 kts 156°
2026-04-23 20:40 61.64954 22.93937 22720 ft 329 kts 156°
2026-04-23 20:40 61.62808 22.95670 22795 ft 332 kts 156°
2026-04-23 20:40 61.60643 22.97412 22824 ft 335 kts 156°
2026-04-23 20:40 61.58452 22.99173 22835 ft 339 kts 156°
2026-04-23 20:41 61.56237 23.00951 22834 ft 342 kts 156°
2026-04-23 20:41 61.54006 23.02739 22835 ft 344 kts 156°
2026-04-23 20:41 61.51761 23.04536 22828 ft 347 kts 156°
2026-04-23 20:41 61.49504 23.06338 22840 ft 348 kts 156°
2026-04-23 20:42 61.47242 23.08143 22835 ft 349 kts 156°
2026-04-23 20:42 61.44973 23.09952 22842 ft 350 kts 156°
2026-04-23 20:42 61.42699 23.11763 22834 ft 350 kts 156°
2026-04-23 20:42 61.40424 23.13568 22847 ft 350 kts 156°
2026-04-23 20:43 61.38145 23.15377 22845 ft 351 kts 156°
2026-04-23 20:43 61.35865 23.17183 22839 ft 351 kts 156°
2026-04-23 20:43 61.33582 23.18988 22846 ft 351 kts 156°
2026-04-23 20:43 61.31299 23.20792 22840 ft 351 kts 156°
2026-04-23 20:44 61.29014 23.22593 22840 ft 351 kts 156°
2026-04-23 20:44 61.26724 23.24394 22830 ft 351 kts 156°
2026-04-23 20:44 61.24437 23.26190 22844 ft 351 kts 156°
2026-04-23 20:44 61.22155 23.27982 22841 ft 351 kts 156°
2026-04-23 20:45 61.19862 23.29776 22839 ft 351 kts 156°
2026-04-23 20:45 61.17577 23.31564 22845 ft 351 kts 156°
2026-04-23 20:45 61.15288 23.33352 22848 ft 351 kts 156°
2026-04-23 20:45 61.13031 23.35114 22842 ft 351 kts 156°
2026-04-23 20:46 61.10744 23.36892 22854 ft 351 kts 156°
2026-04-23 20:46 61.08472 23.38722 22845 ft 348 kts 149°
2026-04-23 20:46 61.06575 23.41595 22851 ft 330 kts 124°
2026-04-23 20:46 61.04987 23.44987 22862 ft 329 kts 123°
2026-04-23 20:47 61.03278 23.48192 22857 ft 336 kts 132°
2026-04-23 20:47 61.01379 23.51076 22851 ft 341 kts 137°
2026-04-23 20:47 60.99416 23.53850 22860 ft 342 kts 138°
2026-04-23 20:47 60.97450 23.56618 22853 ft 342 kts 137°
2026-04-23 20:48 60.95492 23.59406 22855 ft 342 kts 137°
2026-04-23 20:48 60.93523 23.62245 22685 ft 348 kts 137°
2026-04-23 20:48 60.91536 23.65153 22521 ft 352 kts 137°
2026-04-23 20:48 60.89533 23.68099 22354 ft 356 kts 137°
2026-04-23 20:49 60.87539 23.71035 22186 ft 358 kts 137°
2026-04-23 20:49 60.85510 23.74027 22032 ft 360 kts 137°
2026-04-23 20:49 60.83466 23.77076 21680 ft 367 kts 137°
2026-04-23 20:49 60.81389 23.80206 21253 ft 375 kts 137°
2026-04-23 20:50 60.79246 23.83349 20759 ft 383 kts 139°
2026-04-23 20:50 60.77049 23.86507 20260 ft 389 kts 139°
2026-04-23 20:50 60.74846 23.89695 19762 ft 385 kts 139°
2026-04-23 20:50 60.72680 23.92845 19272 ft 379 kts 139°
2026-04-23 20:51 60.70547 23.95949 18795 ft 374 kts 140°
2026-04-23 20:51 60.68435 23.99014 18321 ft 370 kts 140°
2026-04-23 20:51 60.66342 24.02034 17802 ft 367 kts 140°
2026-04-23 20:51 60.64269 24.05027 17263 ft 363 kts 140°
2026-04-23 20:52 60.62216 24.07989 16732 ft 360 kts 141°
2026-04-23 20:52 60.60177 24.10926 16174 ft 358 kts 141°
2026-04-23 20:52 60.58150 24.13842 15589 ft 357 kts 141°
2026-04-23 20:52 60.56126 24.16745 15004 ft 355 kts 141°
2026-04-23 20:53 60.54113 24.19622 14439 ft 353 kts 141°
2026-04-23 20:53 60.52122 24.22471 14071 ft 341 kts 141°
2026-04-23 20:53 60.50206 24.25205 13531 ft 335 kts 141°
2026-04-23 20:53 60.48313 24.27920 12872 ft 331 kts 141°
2026-04-23 20:54 60.46440 24.30581 12246 ft 327 kts 142°
2026-04-23 20:54 60.44591 24.33213 11617 ft 321 kts 142°
2026-04-23 20:54 60.42787 24.35773 11004 ft 312 kts 142°
2026-04-23 20:54 60.41030 24.38269 10403 ft 305 kts 142°
2026-04-23 20:55 60.39310 24.40708 9810 ft 299 kts 142°
2026-04-23 20:55 60.37623 24.43100 9167 ft 293 kts 142°
2026-04-23 20:55 60.35966 24.45442 8522 ft 288 kts 142°
2026-04-23 20:55 60.34332 24.47744 7887 ft 284 kts 142°
2026-04-23 20:56 60.32728 24.50012 7269 ft 280 kts 142°
2026-04-23 20:56 60.31143 24.52242 6654 ft 276 kts 142°
2026-04-23 20:56 60.29599 24.54414 6061 ft 272 kts 143°
2026-04-23 20:56 60.28057 24.56581 5423 ft 269 kts 143°
2026-04-23 20:57 60.26563 24.58675 4792 ft 248 kts 144°
2026-04-23 20:57 60.25209 24.60571 4219 ft 226 kts 144°
2026-04-23 20:57 60.23973 24.62302 3736 ft 208 kts 144°
2026-04-23 20:57 60.22824 24.63923 3259 ft 193 kts 142°
2026-04-23 20:58 60.22110 24.66012 2781 ft 180 kts 97°
2026-04-23 20:58 60.22191 24.68398 2521 ft 171 kts 77°
2026-04-23 20:58 60.22401 24.70752 2397 ft 168 kts 68°
2026-04-23 20:58 60.23089 24.72505 2337 ft 157 kts 40°
2026-04-23 20:59 60.23838 24.74034 2309 ft 148 kts 42°
2026-04-23 20:59 60.24520 24.75523 2161 ft 141 kts 43°
2026-04-23 20:59 60.25162 24.76954 1976 ft 136 kts 43°
2026-04-23 20:59 60.25794 24.78342 1788 ft 133 kts 43°
2026-04-23 21:00 60.26423 24.79712 1601 ft 133 kts 43°
2026-04-23 21:00 60.27051 24.81083 1425 ft 133 kts 43°
2026-04-23 21:00 60.27679 24.82460 1241 ft 134 kts 44°
2026-04-23 21:00 60.28310 24.83841 1049 ft 134 kts 44°
2026-04-23 21:01 60.28947 24.85220 857 ft 132 kts 44°
2026-04-23 21:01 60.29527 24.86493 681 ft 116 kts 47°
2026-04-23 21:01 60.30065 24.87694 553 ft 116 kts 45°
2026-04-23 21:01 60.30622 24.88901 392 ft 118 kts 46°
2026-04-23 21:02 60.31174 24.90118 225 ft 117 kts 46°
2026-04-23 21:02 60.31704 24.91289 145 ft 104 kts 45°
2026-04-23 21:02 60.32129 24.92212 156 ft 77 kts 47°
2026-04-23 21:02 60.32453 24.92921 171 ft 61 kts 47°
2026-04-23 21:03 60.32718 24.93504 176 ft 52 kts 48°
2026-04-23 21:03 60.32941 24.94001 181 ft 44 kts 47°
2026-04-23 21:03 60.33097 24.94350 188 ft 23 kts 50°
2026-04-23 21:03 60.33117 24.94653 180 ft 24 kts 93°
2026-04-23 21:04 60.33108 24.95019 174 ft 27 kts 93°
2026-04-23 21:04 60.33189 24.95347 177 ft 24 kts 50°
2026-04-23 21:04 60.33168 24.95592 177 ft 19 kts 137°
2026-04-23 21:04 60.33072 24.95761 177 ft 17 kts 147°
2026-04-23 21:05 60.32972 24.95886 174 ft 18 kts 149°
2026-04-23 21:05 60.32907 24.96060 171 ft 16 kts 71°
2026-04-23 21:05 60.32885 24.96212 170 ft 12 kts 147°
2026-04-23 21:05 60.32807 24.96296 169 ft 13 kts 151°
2026-04-23 21:06 60.32724 24.96392 167 ft 14 kts 151°
2026-04-23 21:06 60.32640 24.96483 168 ft 13 kts 151°
2026-04-23 21:06 60.32562 24.96581 169 ft 14 kts 146°
2026-04-23 21:06 60.32474 24.96683 170 ft 16 kts 155°
2026-04-23 21:07 60.32359 24.96795 163 ft 21 kts 153°
2026-04-23 21:07 60.32225 24.96931 159 ft 22 kts 153°
2026-04-23 21:07 60.32090 24.97072 159 ft 21 kts 153°
2026-04-23 21:07 60.31972 24.97194 159 ft 18 kts 153°
2026-04-23 21:08 60.31860 24.97311 158 ft 18 kts 153°
2026-04-23 21:08 60.31747 24.97425 158 ft 18 kts 154°
2026-04-23 21:08 60.31642 24.97533 158 ft 13 kts 150°
2026-04-23 21:08 60.31560 24.97617 159 ft 13 kts 157°
2026-04-23 21:09 60.31517 24.97567 159 ft 7 kts 226°
2026-04-23 21:09 60.31472 24.97533 160 ft 7 kts 208°
2026-04-23 21:09 60.31445 24.97456 160 ft 5 kts 243°
2026-04-23 21:09 60.31440 24.97437 160 ft 0 kts 241°